Location: Aalsum
(53.3404°N, 6.0062°E)
Time: 06:15:44
(UTC+00:00)

Cosmos 540 Rocket - Pass Details

Date: 28 January 2023
Orbit: 740 x 751 km, 74.1° (Epoch: 24 March)

Event Time Altitude Azimuth Distance (km) Brightness Sun altitude
Rises 19:28:20 0° 331° (NNW) 3,213 7.2 -29.2°
Reaches altitude 10° 19:30:45 10° 328° (NNW) 2,283 6.4 -29.6°
Enters shadow 19:35:30 56° 266° (W) 891 4.0 -30.3°
